GW1114 Weather Reports


time (UTC)temp
C
wind
direction
speed
KPH
gust
KPH
rain 1hr
cm
rain 24hr
cm
rain mn
cm
humidity
%
barometer
mb
20260504151017 17 0 0.0 6.4 0.00 0.00 0.00 55 1017.1
20260504150515 17 0 1.6 12.9 0.00 0.00 0.00 57 1017.2
20260504141017 13 348 1.6 8.0 0.00 0.00 0.00 67 1017.4
20260504140518 13 335 0.0 4.8 0.00 0.00 0.00 71 1017.3
20260504130516 8 0 0.0 0.0 0.00 0.00 0.00 97 1017.5
20260504110514 5 0 0.0 1.6 0.00 0.00 0.00 91 1017.1
20260504100514 5 0 0.0 0.0 0.00 0.00 0.00 90 1016.8
20260504081532 6 0 0.0 0.0 0.00 0.00 0.00 87 1016.7
20260504081013 6 0 0.0 0.0 0.00 0.00 0.00 87 1016.6
20260504080513 6 0 0.0 0.0 0.00 0.00 0.00 87 1016.6
20260504050515 8 0 0.0 0.0 0.00 0.00 0.00 81 1017.5
20260504045513 8 0 0.0 0.0 0.00 0.00 0.00 81 1017.6
20260504045016 8 0 0.0 0.0 0.00 0.00 0.00 80 1017.6
20260504044541 8 0 0.0 0.0 0.00 0.00 0.00 80 1017.6
20260504044015 8 0 0.0 0.0 0.00 0.00 0.00 80 1017.5
20260504043515 8 0 0.0 0.0 0.00 0.00 0.00 80 1017.4
20260504043030 8 0 0.0 0.0 0.00 0.00 0.00 79 1017.4
20260504042514 8 0 0.0 0.0 0.00 0.00 0.00 79 1017.4
20260504042016 9 0 0.0 0.0 0.00 0.00 0.00 78 1017.5
20260504041530 9 0 0.0 0.0 0.00 0.00 0.00 77 1017.6
20260504041014 9 0 0.0 0.0 0.00 0.00 0.00 78 1017.5
20260504040517 9 0 0.0 0.0 0.00 0.00 0.00 77 1017.6
20260504040043 9 0 0.0 0.0 0.00 0.00 0.00 77 1017.6
20260504035514 9 0 0.0 0.0 0.00 0.00 0.00 77 1017.6
20260504035015 10 0 0.0 0.0 0.00 0.00 0.00 77 1017.6
20260504034536 10 0 0.0 0.0 0.00 0.00 0.00 75 1017.6
20260504034013 10 0 0.0 0.0 0.00 0.00 0.00 76 1017.6
20260504033515 10 0 0.0 0.0 0.00 0.00 0.00 75 1017.6
20260504033030 10 0 0.0 0.0 0.00 0.00 0.00 75 1017.7
20260504032516 10 0 0.0 0.0 0.00 0.00 0.00 73 1017.7
20260504032018 10 0 0.0 0.0 0.00 0.00 0.00 73 1017.7
20260504031531 10 0 0.0 0.0 0.00 0.00 0.00 72 1017.6
20260504031015 10 0 0.0 0.0 0.00 0.00 0.00 72 1017.7
20260504030513 10 0 0.0 0.0 0.00 0.00 0.00 72 1017.7
20260504030032 11 0 0.0 0.0 0.00 0.00 0.00 72 1017.6
20260504025515 11 0 0.0 0.0 0.00 0.00 0.00 71 1017.6
20260504025015 11 0 0.0 0.0 0.00 0.00 0.00 71 1017.6
20260504024530 11 0 0.0 0.0 0.00 0.00 0.00 70 1017.6
20260504024016 11 0 0.0 0.0 0.00 0.00 0.00 69 1017.6
20260504023602 11 0 0.0 0.0 0.00 0.00 0.00 68 1017.6
20260504023030 11 0 0.0 0.0 0.00 0.00 0.00 68 1017.6
20260504022515 11 0 0.0 0.0 0.00 0.00 0.00 68 1017.5
20260504022015 12 0 0.0 0.0 0.00 0.00 0.00 67 1017.4
20260504021534 12 0 0.0 0.0 0.00 0.00 0.00 67 1017.3
20260504021016 12 0 0.0 0.0 0.00 0.00 0.00 66 1017.4
20260504020515 12 0 0.0 0.0 0.00 0.00 0.00 65 1017.2
20260504020032 12 0 0.0 0.0 0.00 0.00 0.00 64 1017.1
20260504015515 12 0 0.0 0.0 0.00 0.00 0.00 64 1016.9
20260504015015 13 0 0.0 0.0 0.00 0.00 0.00 63 1016.9
20260504014534 13 0 0.0 0.0 0.00 0.00 0.00 62 1016.8
20260504014014 13 0 0.0 0.0 0.00 0.00 0.00 61 1016.7
20260504013514 13 0 0.0 0.0 0.00 0.00 0.00 61 1016.7
20260504013045 13 0 0.0 0.0 0.00 0.00 0.00 60 1016.7
20260504012518 14 0 0.0 0.0 0.00 0.00 0.00 59 1016.7
20260504012015 14 0 0.0 0.0 0.00 0.00 0.00 58 1016.6
20260504011531 15 0 0.0 0.0 0.00 0.00 0.00 57 1016.6
20260504011015 15 0 0.0 0.0 0.00 0.00 0.00 56 1016.6
20260504010518 15 0 0.0 0.0 0.00 0.00 0.00 56 1016.6
20260504010035 16 0 0.0 0.0 0.00 0.00 0.00 55 1016.5
20260504005515 16 0 0.0 0.0 0.00 0.00 0.00 55 1016.5
20260504005015 16 0 0.0 0.0 0.00 0.00 0.00 52 1016.5
20260504004535 16 0 0.0 0.0 0.00 0.00 0.00 52 1016.2
20260504004017 17 0 0.0 0.0 0.00 0.00 0.00 51 1016.2
20260504003515 17 0 0.0 0.0 0.00 0.00 0.00 51 1016.1
20260504003032 17 0 0.0 0.0 0.00 0.00 0.00 49 1016.1
20260504002515 18 0 0.0 0.0 0.00 0.00 0.00 49 1016.2
20260504002016 18 0 0.0 1.6 0.00 0.00 0.00 48 1016.2
20260504001530 18 0 0.0 1.6 0.00 0.00 0.00 50 1016.2
20260504001018 18 0 0.0 1.6 0.00 0.00 0.00 48 1016.1
20260504000514 18 0 0.0 6.4 0.00 0.00 0.00 42 1016.1
20260504000032 19 0 0.0 6.4 0.00 0.00 0.00 42 1016.1
20260503235514 19 0 0.0 8.0 0.00 0.00 0.00 42 1016.0
20260503235015 19 348 0.0 8.0 0.00 0.00 0.00 42 1016.1
20260503234532 20 323 1.6 8.0 0.00 0.00 0.00 41 1016.0
20260503234015 20 240 1.6 8.0 0.00 0.00 0.00 40 1016.1
20260503233514 20 321 0.0 8.0 0.00 0.00 0.00 39 1016.0
20260503233038 21 242 1.6 8.0 0.00 0.00 0.00 38 1016.1
20260503232514 21 339 0.0 8.0 0.00 0.00 0.00 39 1016.1
20260503232014 21 352 0.0 4.8 0.00 0.00 0.00 36 1016.1
20260503231534 21 313 1.6 11.3 0.00 0.00 0.00 36 1016.1
20260503231014 22 351 3.2 11.3 0.00 0.00 0.00 34 1016.2
20260503230515 22 257 3.2 6.4 0.00 0.00 0.00 33 1016.2
20260503230032 22 5 1.6 9.7 0.00 0.00 0.00 34 1016.3
20260503225517 22 0 1.6 9.7 0.00 0.00 0.00 35 1016.2
20260503225015 22 327 1.6 8.0 0.00 0.00 0.00 35 1016.3
20260503224531 22 0 1.6 8.0 0.00 0.00 0.00 34 1016.4
20260503224019 22 236 1.6 9.7 0.00 0.00 0.00 33 1016.3
20260503223515 22 300 3.2 9.7 0.00 0.00 0.00 32 1016.2
20260503223036 23 211 3.2 9.7 0.00 0.00 0.00 33 1016.2
20260503222514 23 103 1.6 8.0 0.00 0.00 0.00 34 1016.2
20260503222015 23 325 1.6 8.0 0.00 0.00 0.00 33 1016.3
20260503221542 22 360 3.2 8.0 0.00 0.00 0.00 33 1016.3
20260503221016 22 341 1.6 8.0 0.00 0.00 0.00 34 1016.2
20260503220516 22 0 1.6 8.0 0.00 0.00 0.00 34 1016.3
20260503220032 22 327 1.6 14.5 0.00 0.00 0.00 35 1016.4
20260503215514 22 222 4.8 14.5 0.00 0.00 0.00 33 1016.3
20260503215018 23 225 4.8 14.5 0.00 0.00 0.00 34 1016.4
20260503214534 22 314 1.6 9.7 0.00 0.00 0.00 34 1016.4
20260503214014 22 360 3.2 12.9 0.00 0.00 0.00 33 1016.4
20260503213515 22 203 3.2 12.9 0.00 0.00 0.00 33 1016.5
20260503213041 22 303 1.6 16.1 0.00 0.00 0.00 36 1016.5
20260503212515 22 347 3.2 16.1 0.00 0.00 0.00 35 1016.5
20260503212016 23 360 3.2 16.1 0.00 0.00 0.00 34 1016.5
20260503211535 23 246 6.4 16.1 0.00 0.00 0.00 33 1016.6
20260503211014 23 337 4.8 16.1 0.00 0.00 0.00 33 1016.6
20260503210516 23 31 4.8 12.9 0.00 0.00 0.00 33 1016.6
20260503210030 24 352 1.6 11.3 0.00 0.00 0.00 36 1016.6
20260503205514 24 0 1.6 6.4 0.00 0.00 0.00 37 1016.6
20260503205015 23 243 3.2 8.0 0.00 0.00 0.00 35 1016.7
20260503204532 23 212 3.2 9.7 0.00 0.00 0.00 35 1016.7
20260503204014 23 306 0.0 9.7 0.00 0.00 0.00 37 1016.7
20260503203514 23 313 3.2 8.0 0.00 0.00 0.00 34 1016.8
20260503203029 23 199 3.2 12.9 0.00 0.00 0.00 36 1016.9
20260503202515 22 299 1.6 12.9 0.00 0.00 0.00 38 1017.0
20260503202016 22 360 3.2 12.9 0.00 0.00 0.00 36 1017.1
20260503201535 22 269 4.8 16.1 0.00 0.00 0.00 35 1017.2
20260503201014 22 335 3.2 16.1 0.00 0.00 0.00 34 1017.2
20260503200517 22 327 4.8 16.1 0.00 0.00 0.00 33 1017.4
20260503200033 23 0 3.2 9.7 0.00 0.00 0.00 36 1017.4
20260503195515 23 41 3.2 12.9 0.00 0.00 0.00 34 1017.4
20260503195015 23 348 4.8 12.9 0.00 0.00 0.00 32 1017.6
20260503194532 23 274 3.2 12.9 0.00 0.00 0.00 33 1017.7
20260503194017 23 276 1.6 9.7 0.00 0.00 0.00 35 1017.8
20260503193515 23 235 1.6 12.9 0.00 0.00 0.00 34 1017.9
20260503193030 23 139 3.2 12.9 0.00 0.00 0.00 35 1017.9
20260503192514 23 342 3.2 9.7 0.00 0.00 0.00 35 1018.0
20260503192015 23 0 1.6 9.7 0.00 0.00 0.00 36 1018.0
20260503191534 22 300 3.2 9.7 0.00 0.00 0.00 35 1018.1
20260503191014 22 219 3.2 8.0 0.00 0.00 0.00 35 1018.3
20260503190515 22 29 1.6 17.7 0.00 0.00 0.00 35 1018.4
20260503190045 21 0 3.2 17.7 0.00 0.00 0.00 34 1018.4
20260503185517 21 350 3.2 9.7 0.00 0.00 0.00 37 1018.5
20260503185017 21 18 3.2 9.7 0.00 0.00 0.00 36 1018.5
20260503184531 21 22 4.8 11.3 0.00 0.00 0.00 34 1018.6
20260503184019 21 169 1.6 11.3 0.00 0.00 0.00 36 1018.6
20260503183515 21 329 1.6 9.7 0.00 0.00 0.00 34 1018.7
20260503183035 21 76 3.2 9.7 0.00 0.00 0.00 35 1018.8
20260503182516 21 275 4.8 12.9 0.00 0.00 0.00 33 1018.9
20260503182014 21 327 4.8 12.9 0.00 0.00 0.00 37 1018.8
20260503181532 21 239 3.2 8.0 0.00 0.00 0.00 35 1018.9
20260503181016 21 123 1.6 12.9 0.00 0.00 0.00 39 1018.8
20260503180516 20 103 3.2 17.7 0.00 0.00 0.00 39 1018.9
20260503180039 20 240 4.8 17.7 0.00 0.00 0.00 38 1019.0
20260503175514 20 345 1.6 12.9 0.00 0.00 0.00 40 1018.9
20260503175014 20 261 4.8 12.9 0.00 0.00 0.00 41 1018.9
20260503174529 20 244 3.2 9.7 0.00 0.00 0.00 42 1019.0
20260503174014 20 148 1.6 9.7 0.00 0.00 0.00 42 1019.0
20260503173514 20 17 4.8 9.7 0.00 0.00 0.00 42 1019.1
20260503173034 20 43 1.6 11.3 0.00 0.00 0.00 45 1019.2
20260503172514 19 275 3.2 11.3 0.00 0.00 0.00 44 1019.2
20260503172014 19 286 3.2 9.7 0.00 0.00 0.00 44 1019.2
20260503171540 18 233 1.6 12.9 0.00 0.00 0.00 45 1019.3
20260503171014 18 0 1.6 12.9 0.00 0.00 0.00 46 1019.3
20260503170517 18 76 4.8 12.9 0.00 0.00 0.00 47 1019.3